Regional Weather Roundup
Issued by NWS Charleston, WV

Home | Current Version | Previous Version | Graphics & Text | Print | Product List | Glossary On
Versions: 1 2 3 4 5 6 7 8 9 10 11 12 13 14 15 16 17 18 19 20 21 22 23 24 25 26 27 28 29 30 31 32 33 34 35 36 37 38 39 40 41 42 43 44 45 46 47 48 49 50
000
ASUS41 KRLX 261710
RWRRLX
West Virginia Regional Weather Roundup
National Weather Service Charleston WV
100 PM EDT TUE AUG 26 2014

Note: "fair" indicates few or no clouds below 12,000 feet with no
significant weather and/or obstructions to visibility.

WVZ003-261800-
Northern Panhandle of West Virginia

CITY           SKY/WX    TMP DP  RH WIND       PRES   REMARKS
WHEELING       SUNNY     78  64  61 VRB5      30.20F
$$

WVZ009-261800-
Northwest West Virginia

CITY           SKY/WX    TMP DP  RH WIND       PRES   REMARKS
PARKERSBURG    SUNNY     81  60  48 NE3       30.21F
$$

WVZ006-261800-
Western West Virginia

CITY           SKY/WX    TMP DP  RH WIND       PRES   REMARKS
HUNTINGTON     SUNNY     79  63  57 NE6       30.17F
$$

WVZ015-261800-
West Central West Virginia

CITY           SKY/WX    TMP DP  RH WIND       PRES   REMARKS
CHARLESTON     PTSUNNY   78  60  53 CALM      30.18F
$$

WVZ031-261800-
North Central West Virginia

CITY           SKY/WX    TMP DP  RH WIND       PRES   REMARKS
CLARKSBURG     SUNNY     78  59  51 CALM      30.20F
MORGANTOWN     SUNNY     80  58  46 N7        30.22F
$$

WVZ035-042-045-261800-
South Central West Virginia

CITY           SKY/WX    TMP DP  RH WIND       PRES   REMARKS
BECKLEY        MOSUNNY   73  57  57 E8        30.25F
BLUEFIELD      SUNNY     74  54  49 CALM      30.26F
LEWISBURG      MOSUNNY   74  55  50 CALM      30.25F
$$

WVZ047-261800-
Northern Mountains of West Virginia

CITY           SKY/WX    TMP DP  RH WIND       PRES   REMARKS
ELKINS         SUNNY     77  54  44 NW6       30.23F
$$

WVZ052-261800-
Eastern Panhandle of West Virginia

CITY           SKY/WX    TMP DP  RH WIND       PRES   REMARKS
MARTINSBURG    SUNNY     80  58  46 SW5       30.20F
PETERSBURG     NOT AVBL
$$


USA.gov is the U.S. government's official web portal to all federal, state and local government web resources and services.